Location: Bouchavesnes-Bergen
(49.9859°N, 2.9203°E)
Time: 14:30:36
(UTC+00:00)

NOAA 16 DEB - Pass Details

Date: 27 September 2021
Orbit: 798 x 841 km, 98.8° (Epoch: 16 October)

Event Time Altitude Azimuth Distance (km) Brightness Sun altitude
Exits shadow 21:12:07 15° 29° (NNE) 2,061 ? -32.8°
Drops below altitude 10° 21:13:37 10° 13° (NNE) 2,389 ? -32.9°
Sets 21:16:38 0° 356° (N) 3,320 ? -33.3°
